Regional Weather Roundup
Issued by NWS

Home | Current Version | Previous Version | Graphics & Text | Print | Product List | Glossary On
Versions: 1 2 3 4 5 6 7 8 9 10 11 12 13 14 15 16 17 18 19 20 21 22 23 24 25 26 27 28 29 30 31 32 33 34 35 36 37 38 39 40 41 42 43 44 45 46 47 48 49 50
000
ASUS43 KFSD 291802
RWRSD

WEATHER ROUNDUP FOR SOUTH DAKOTA
NATIONAL WEATHER SERVICE SIOUX FALLS SD
100 PM CDT FRI AUG 29 2014

NOTE: "FAIR" INDICATES FEW OR NO CLOUDS BELOW 12,000 FEET WITH NO
SIGNIFICANT WEATHER AND/OR OBSTRUCTIONS TO VISIBILITY.


SDZ001>005-009-010-012>017-291900-
NORTHWEST AND NORTH CENTRAL SOUTH DAKOTA

CITY           SKY/WX    TMP DP  RH WIND       PRES   REMARKS
BUFFALO          N/A     70  55  59 NW24      29.93R
FAITH            N/A     71  55  56 N16       29.94R
MOBRIDGE       SUNNY     76  58  53 N22G31    29.83S
$$

SDZ012>016-024>037-041>051-057-063-072>074-291900-
SOUTHWEST AND SOUTH CENTRAL SOUTH DAKOTA

CITY           SKY/WX    TMP DP  RH WIND       PRES   REMARKS
RAPID CTY ARPT PTSUNNY   71  52  50 N17G24    30.01R
PIERRE         MOSUNNY   77  66  68 N20G25    29.84R
CUSTER         PTSUNNY   66  49  54 CALM      30.10R
ELLSWORTH AFB  PTSUNNY   72  53  51 N15G24    30.01S
PHILIP         MOSUNNY   77  56  48 N25G32    29.90R
PINE RIDGE     MOSUNNY   76  55  48 N14G22    30.00R
WINNER         FAIR      80  64  58 N10       29.85F
$$

SDZ004>011-016>023-039-040-291900-
NORTHEAST SOUTH DAKOTA

CITY           SKY/WX    TMP DP  RH WIND       PRES   REMARKS
ABERDEEN       PTSUNNY   72  67  84 S5        29.80S
WATERTOWN      CLOUDY    70  65  84 CALM      29.81S
SISSETON         N/A     73  67  81 SW3       29.78S
$$

SDZ017-020-022-023-036>040-048>070-291900-
SOUTHEAST SOUTH DAKOTA

CITY           SKY/WX    TMP DP  RH WIND       PRES   REMARKS
SIOUX FALLS    CLOUDY    74  69  85 S7        29.80F
HURON          PTSUNNY   75  66  73 W5        29.80F
CHAMBERLAIN    SUNNY     77  67  70 NE3       29.83F
MITCHELL       MOSUNNY   76  69  79 N9        29.82F
YANKTON        CLOUDY    73  68  83 CALM      29.81S
$$

ABBREVIATIONS USED IN REMARKS
   TC - TEMPERATURE IN CELSIUS
  WCI - WIND CHILL INDEX
   HX - HEAT INDEX
  VSB - VISIBILITY




USA.gov is the U.S. government's official web portal to all federal, state and local government web resources and services.